NOAA 16 DEB, 41140

Orbit data source: Space-Track

NOAA 16 DEB, 41140 is space debris in SSO originally from a launch on Thu, 21 Sep 2000 UTC launched from the Air Force Western Test Range (AFWTR). Debris objects in space refer to the collection of defunct objects orbiting the Earth. Examples of debris include non-operational satellites, rocket bodies, and fragments generated from explosions, collisions, or faulty payload assembly.

Loading next visibility...
Identifier
41140, 2000-055BX
Orbit
SSO
Country
Flag of USUS
Related business
Manufacturer
Unknown
Mission
Spacecraft
Bus & Motor
Unknown
Mass
Unknown
Launch date (UTC)
2000-09-21 (26 years ago)
Launch vehicle
Unknown
Launch site
Air Force Western Test Range (AFWTR)
Object type
Payload
Rocket body
Debris
Shape & HBR
Unknown shape, 0.1 m
Radar Cross Section
Small (<0.1 m²)

Expand to show TLE details & history
Last TLE update: 6 days ago

TLE from 6 days ago
0 NOAA 16 DEB
1 41140U 00055BX  26154.41235642  .00032545  00000-0  32576-2 0  9999
2 41140  98.8381   4.6605 0019726 286.6449  73.2600 14.91184773551053
Epoch: 2026-06-03T09:53Z
TLE epoch observation values (Epoch: 2026-06-03T09:53:47.594Z)
Latitude
-0.00007°
Longitude
-35.65914°
Altitude
593.31 km
Speed
7.565 km/s
True Right ascension
00h 18m 38s
True Declination
0° 00' 00"
Sunlit
Object was in daylight at epoch
Visualization orbit readout
Latitude
Unknown
Longitude
Unknown
Altitude
Unknown
Speed
Unknown
Apparent Right ascension
Unknown
Apparent Declination
Unknown
Sunlit
N/A
Visualization observer readout
Local Sidereal Time
18:30:57
Azimuth
Unknown
Elevation
Unknown
Doppler factor
Unknown
Orbital elements
Apogee altitude
605.059 km
Perigee altitude
577.563 km
Semi-major axis
6,969.448 km
Eccentricity
0.00197
Inclination
98.8381°
RAAN
4.6605°
Arg. of periapsis
286.6449°
True anomaly
73.47662°
Mean anomaly
73.26°
Eccentric anomaly
73.36829°
Mean motion
3.73032 °/min
Orbital period
96.51 mins
BSTAR
0.0032576
Loading maneuver chart data...
Computing Atmospheric mass density...

Documentation

Showing up to 5 results
|